Flag for Azerbaijan Weather past 2 weeks in Ganja, Azerbaijan

Now
37 °F

Passing clouds.


Feels Like: 32 °F
Forecast: 40 / 56 °F
Wind: 7 mph from Northwest

Location: Gyanca Airport

Current Time: Mar 7, 2015 at 9:31:01 AM

Latest Report: Mar 7, 2015 at 9:00 AM


Visibility: N/A

Pressure: 30.33 "Hg

Humidity: 81%

Dew point: 32 °F

Location of GanjaLocation

Historic Weather in Ganja — Graph

°F

Ganja temperature yesterday

Maximum temperature yesterday: 50 °F (at 2:00 PM)
Minimum temperature yesterday: 32 °F (at 7:30 AM)
Average temperature yesterday: 42 °F

Past Weeks' High & Low Weather Summary

 TemperatureHumidityPressure
High61 °F (Mar 2, 5:30 PM)100% (Feb 20, 7:00 PM)30.48 "Hg (Feb 20, 7:00 PM)
Low32 °F (Feb 20, 11:30 PM)26% (Mar 5, 5:00 PM)29.86 "Hg (Feb 20, 8:00 AM)
Average43 °F77%30.14 "Hg
* Reported Feb 20 8:00 AM — Mar 7 8:30 AM, Ganja, Weather by CustomWeather, © 2015

Note: Actual official high and low records may vary slightly from our data, if they occured in-between our weather recording intervals... More about our weather records

Advertising

Ganja weather history for previous 24 hours

 ConditionsComfort  
Time TempWeatherWind HumidityBarometerVisibility
8:30 AM
Sat, Mar 7
37 °FScattered clouds.5 mph75%30.33 "HgN/A
8:00 AM34 °FPassing clouds.5 mph93%30.33 "HgN/A
7:30 AM34 °FPassing clouds.6 mph87%30.36 "HgN/A
7:00 AM34 °FPassing clouds.2 mph87%30.36 "HgN/A
6:30 AM32 °FPassing clouds.5 mph87%30.36 "HgN/A
6:00 AM34 °FPassing clouds.5 mph87%30.36 "HgN/A
5:30 AM32 °FPassing clouds.2 mph87%30.36 "HgN/A
5:00 AM32 °FPassing clouds.7 mph87%30.36 "HgN/A
4:30 AM34 °FPassing clouds.2 mph81%30.36 "HgN/A
4:00 AM34 °FPassing clouds.2 mph81%30.36 "HgN/A
3:30 AM36 °FPassing clouds.2 mph75%30.36 "HgN/A
3:00 AM36 °FPassing clouds.No wind75%30.36 "HgN/A
2:30 AM36 °FPassing clouds.6 mph75%30.39 "HgN/A
2:00 AM36 °FPassing clouds.7 mph75%30.39 "HgN/A
1:30 AM37 °FPassing clouds.5 mph75%30.39 "HgN/A
1:00 AM37 °FPassing clouds.6 mph75%30.39 "HgN/A
12:30 AM37 °FPassing clouds.6 mph75%30.36 "HgN/A
12:00 AM41 °FPassing clouds.7 mph66%30.39 "HgN/A
11:30 PM
Fri, Mar 6
39 °FPassing clouds.7 mph70%30.39 "HgN/A
11:00 PM39 °FPassing clouds.6 mph70%30.39 "HgN/A
10:30 PM39 °FPassing clouds.5 mph70%30.39 "HgN/A
10:00 PM39 °FPassing clouds.6 mph70%30.39 "HgN/A
9:30 PM41 °FPassing clouds.6 mph66%30.36 "HgN/A
9:00 PM41 °FPassing clouds.5 mph66%30.36 "HgN/A
8:30 PM41 °FPassing clouds.No wind61%30.36 "HgN/A
8:00 PM45 °FPassing clouds.3 mph53%30.36 "HgN/A
7:30 PM46 °FPassing clouds.5 mph50%30.36 "HgN/A
7:00 PM46 °FPassing clouds.5 mph50%30.36 "HgN/A
6:30 PM48 °FPassing clouds.6 mph50%30.36 "HgN/A
6:00 PM50 °FPassing clouds.9 mph43%30.36 "HgN/A
5:30 PM50 °FPassing clouds.9 mph47%30.36 "HgN/A
5:00 PM50 °FPassing clouds.10 mph43%30.36 "HgN/A
4:30 PM50 °FPassing clouds.10 mph43%30.36 "HgN/A
4:00 PM50 °FPassing clouds.9 mph43%30.36 "HgN/A
3:30 PM50 °FPassing clouds.7 mph43%30.36 "HgN/A
3:00 PM50 °FPassing clouds.8 mph40%30.39 "HgN/A
2:30 PM50 °FPassing clouds.10 mph43%30.39 "HgN/A
2:00 PM50 °FPassing clouds.9 mph43%30.39 "HgN/A
1:30 PM48 °FPassing clouds.8 mph46%30.42 "HgN/A
1:00 PM46 °FPassing clouds.7 mph46%30.42 "HgN/A
12:30 PM46 °FScattered clouds.8 mph46%30.42 "HgN/A
12:00 PM46 °FScattered clouds.7 mph46%30.42 "HgN/A
11:30 AM46 °FScattered clouds.7 mph43%30.42 "HgN/A
11:00 AM45 °FPassing clouds.7 mph42%30.42 "HgN/A
10:30 AM43 °FPassing clouds.5 mph49%30.45 "HgN/A
10:00 AM43 °FPassing clouds.6 mph49%30.45 "HgN/A
9:30 AM45 °FPassing clouds.5 mph37%30.45 "HgN/A
9:00 AM43 °FPassing clouds.3 mph36%30.42 "HgN/A
Weather by CustomWeather, © 2015

See weather overviewHow to use our weather pages